| time (UTC) | temp F | wind direction | speed MPH | gust MPH | rain 1hr in | rain 24hr in | rain mn in | humidity % | barometer mb |
| 20260509032035 | 43 | 352 | 0.0 | 2.0 | 0.00 | 0.00 | 0.00 | 95 | 1018.0 |
| 20260509031550 | 43 | 0 | 0.0 | 4.0 | 0.00 | 0.00 | 0.00 | 95 | 1018.1 |
| 20260509031035 | 43 | 360 | 0.0 | 4.0 | 0.00 | 0.00 | 0.00 | 95 | 1018.1 |
| 20260509030536 | 43 | 0 | 0.0 | 3.0 | 0.00 | 0.00 | 0.00 | 95 | 1018.0 |
| 20260509030050 | 43 | 352 | 0.0 | 3.0 | 0.00 | 0.00 | 0.00 | 95 | 1018.0 |
| 20260509025535 | 43 | 0 | 0.0 | 3.0 | 0.00 | 0.00 | 0.00 | 95 | 1017.9 |
| 20260509025035 | 43 | 0 | 0.0 | 3.0 | 0.00 | 0.00 | 0.00 | 94 | 1018.1 |
| 20260509024541 | 43 | 336 | 0.0 | 2.0 | 0.00 | 0.00 | 0.00 | 94 | 1017.9 |
| 20260509024035 | 43 | 313 | 0.0 | 3.0 | 0.00 | 0.00 | 0.00 | 94 | 1018.0 |
| 20260509023535 | 43 | 301 | 1.0 | 3.0 | 0.00 | 0.00 | 0.00 | 94 | 1018.0 |
| 20260509023058 | 43 | 309 | 1.0 | 3.0 | 0.00 | 0.00 | 0.00 | 94 | 1017.9 |
| 20260509022536 | 44 | 323 | 0.0 | 2.0 | 0.00 | 0.00 | 0.00 | 94 | 1017.9 |
| 20260509022036 | 44 | 314 | 0.0 | 2.0 | 0.00 | 0.00 | 0.00 | 93 | 1017.7 |
| 20260509021548 | 44 | 0 | 0.0 | 4.0 | 0.00 | 0.00 | 0.00 | 94 | 1017.9 |
| 20260509021035 | 44 | 317 | 0.0 | 4.0 | 0.00 | 0.00 | 0.00 | 93 | 1017.8 |
| 20260509020537 | 44 | 311 | 0.0 | 3.0 | 0.00 | 0.00 | 0.00 | 93 | 1017.8 |
| 20260509020046 | 44 | 323 | 1.0 | 3.0 | 0.00 | 0.00 | 0.00 | 93 | 1017.9 |
| 20260509015535 | 44 | 0 | 0.0 | 5.0 | 0.00 | 0.00 | 0.00 | 93 | 1018.0 |
| 20260509015037 | 44 | 0 | 1.0 | 5.0 | 0.00 | 0.00 | 0.00 | 92 | 1017.9 |
| 20260509014539 | 44 | 336 | 1.0 | 5.0 | 0.00 | 0.00 | 0.00 | 92 | 1018.0 |
| 20260509014035 | 44 | 0 | 0.0 | 3.0 | 0.00 | 0.00 | 0.00 | 92 | 1017.9 |
| 20260509013535 | 44 | 0 | 0.0 | 3.0 | 0.00 | 0.00 | 0.00 | 92 | 1017.8 |
| 20260509013053 | 44 | 0 | 0.0 | 3.0 | 0.00 | 0.00 | 0.00 | 92 | 1017.8 |
| 20260509012535 | 44 | 344 | 1.0 | 3.0 | 0.00 | 0.00 | 0.00 | 91 | 1017.7 |
| 20260509012035 | 44 | 0 | 0.0 | 3.0 | 0.00 | 0.00 | 0.00 | 91 | 1017.5 |
| 20260509011554 | 45 | 48 | 0.0 | 3.0 | 0.00 | 0.00 | 0.00 | 91 | 1017.6 |
| 20260509011035 | 45 | 352 | 0.0 | 4.0 | 0.00 | 0.00 | 0.00 | 91 | 1017.4 |
| 20260509010535 | 45 | 9 | 0.0 | 4.0 | 0.00 | 0.00 | 0.00 | 90 | 1017.6 |
| 20260509010052 | 45 | 0 | 1.0 | 4.0 | 0.00 | 0.00 | 0.00 | 90 | 1017.7 |
| 20260509005535 | 45 | 0 | 0.0 | 3.0 | 0.00 | 0.00 | 0.00 | 90 | 1017.7 |
| 20260509005035 | 45 | 5 | 0.0 | 3.0 | 0.00 | 0.00 | 0.00 | 90 | 1017.7 |
| 20260509004541 | 45 | 347 | 0.0 | 3.0 | 0.00 | 0.00 | 0.00 | 89 | 1017.7 |
| 20260509004036 | 45 | 0 | 1.0 | 3.0 | 0.00 | 0.00 | 0.00 | 89 | 1017.5 |
| 20260509003535 | 45 | 344 | 0.0 | 2.0 | 0.00 | 0.00 | 0.00 | 89 | 1017.7 |
| 20260509003055 | 45 | 340 | 0.0 | 2.0 | 0.00 | 0.00 | 0.00 | 89 | 1017.7 |
| 20260509002535 | 45 | 0 | 0.0 | 3.0 | 0.00 | 0.00 | 0.00 | 88 | 1017.7 |
| 20260509002037 | 46 | 0 | 0.0 | 3.0 | 0.00 | 0.00 | 0.00 | 88 | 1017.7 |
| 20260509001545 | 46 | 0 | 0.0 | 2.0 | 0.00 | 0.00 | 0.00 | 87 | 1017.5 |
| 20260509001036 | 46 | 0 | 0.0 | 3.0 | 0.00 | 0.00 | 0.00 | 87 | 1017.5 |
| 20260509000535 | 46 | 0 | 0.0 | 3.0 | 0.00 | 0.00 | 0.00 | 86 | 1017.5 |
| 20260509000052 | 47 | 304 | 1.0 | 3.0 | 0.00 | 0.00 | 0.00 | 86 | 1017.4 |
| 20260508235535 | 47 | 329 | 1.0 | 3.0 | 0.00 | 0.00 | 0.00 | 85 | 1017.2 |
| 20260508235035 | 47 | 321 | 0.0 | 3.0 | 0.00 | 0.00 | 0.00 | 85 | 1017.2 |
| 20260508234542 | 47 | 96 | 0.0 | 3.0 | 0.00 | 0.00 | 0.00 | 85 | 1017.2 |
| 20260508234035 | 48 | 292 | 0.0 | 3.0 | 0.00 | 0.00 | 0.00 | 84 | 1017.4 |
| 20260508233535 | 48 | 0 | 1.0 | 3.0 | 0.00 | 0.00 | 0.00 | 83 | 1017.3 |
| 20260508233042 | 48 | 317 | 1.0 | 4.0 | 0.00 | 0.00 | 0.00 | 82 | 1017.4 |
| 20260508232536 | 48 | 317 | 1.0 | 4.0 | 0.00 | 0.00 | 0.00 | 81 | 1017.5 |
| 20260508232038 | 49 | 20 | 0.0 | 3.0 | 0.00 | 0.00 | 0.00 | 81 | 1017.6 |
| 20260508231549 | 49 | 342 | 1.0 | 3.0 | 0.00 | 0.00 | 0.00 | 80 | 1017.6 |
| 20260508231039 | 49 | 323 | 0.0 | 3.0 | 0.00 | 0.00 | 0.00 | 79 | 1017.3 |
| 20260508230538 | 50 | 338 | 1.0 | 3.0 | 0.00 | 0.00 | 0.00 | 78 | 1017.4 |
| 20260508230050 | 50 | 0 | 0.0 | 6.0 | 0.00 | 0.00 | 0.00 | 76 | 1017.5 |
| 20260508225535 | 50 | 0 | 1.0 | 6.0 | 0.00 | 0.00 | 0.00 | 74 | 1017.3 |
| 20260508225036 | 50 | 0 | 0.0 | 3.0 | 0.00 | 0.00 | 0.00 | 74 | 1017.3 |
| 20260508224551 | 51 | 309 | 0.0 | 2.0 | 0.00 | 0.00 | 0.00 | 73 | 1017.4 |
| 20260508224035 | 51 | 0 | 0.0 | 3.0 | 0.00 | 0.00 | 0.00 | 73 | 1017.3 |
| 20260508223535 | 51 | 0 | 0.0 | 4.0 | 0.00 | 0.00 | 0.00 | 73 | 1017.3 |
| 20260508223049 | 51 | 0 | 1.0 | 4.0 | 0.00 | 0.00 | 0.00 | 72 | 1017.3 |
| 20260508222539 | 51 | 0 | 0.0 | 3.0 | 0.00 | 0.00 | 0.00 | 72 | 1017.3 |
| 20260508222038 | 52 | 342 | 1.0 | 4.0 | 0.00 | 0.00 | 0.00 | 71 | 1017.5 |
| 20260508221551 | 52 | 38 | 0.0 | 4.0 | 0.00 | 0.00 | 0.00 | 71 | 1017.4 |
| 20260508221036 | 52 | 5 | 1.0 | 4.0 | 0.00 | 0.00 | 0.00 | 71 | 1017.4 |
| 20260508220538 | 52 | 0 | 0.0 | 3.0 | 0.00 | 0.00 | 0.00 | 69 | 1017.3 |
| 20260508220049 | 52 | 0 | 0.0 | 3.0 | 0.00 | 0.00 | 0.00 | 69 | 1017.2 |
| 20260508215535 | 52 | 291 | 0.0 | 5.0 | 0.00 | 0.00 | 0.00 | 70 | 1017.3 |
| 20260508215036 | 53 | 0 | 0.0 | 5.0 | 0.00 | 0.00 | 0.00 | 69 | 1017.2 |
| 20260508214547 | 53 | 284 | 0.0 | 5.0 | 0.00 | 0.00 | 0.00 | 69 | 1017.1 |
| 20260508214036 | 53 | 224 | 0.0 | 4.0 | 0.00 | 0.00 | 0.00 | 69 | 1017.2 |
| 20260508213539 | 53 | 352 | 1.0 | 3.0 | 0.00 | 0.00 | 0.00 | 67 | 1017.4 |
| 20260508213046 | 53 | 0 | 0.0 | 3.0 | 0.00 | 0.00 | 0.00 | 66 | 1017.6 |
| 20260508212537 | 54 | 0 | 0.0 | 3.0 | 0.00 | 0.00 | 0.00 | 67 | 1017.5 |
| 20260508212039 | 54 | 223 | 0.0 | 6.0 | 0.00 | 0.00 | 0.00 | 67 | 1017.7 |
| 20260508211548 | 54 | 352 | 0.0 | 6.0 | 0.00 | 0.00 | 0.00 | 65 | 1017.1 |
| 20260508211042 | 54 | 26 | 1.0 | 3.0 | 0.00 | 0.00 | 0.00 | 67 | 1017.2 |
| 20260508210541 | 54 | 0 | 1.0 | 3.0 | 0.00 | 0.00 | 0.00 | 65 | 1017.3 |
| 20260508210051 | 54 | 0 | 0.0 | 3.0 | 0.00 | 0.00 | 0.00 | 65 | 1017.3 |
| 20260508205540 | 54 | 302 | 0.0 | 3.0 | 0.00 | 0.00 | 0.00 | 65 | 1017.4 |
| 20260508205036 | 54 | 34 | 0.0 | 2.0 | 0.00 | 0.00 | 0.00 | 66 | 1017.4 |
| 20260508204549 | 54 | 0 | 0.0 | 4.0 | 0.00 | 0.00 | 0.00 | 65 | 1017.4 |
| 20260508204036 | 54 | 0 | 0.0 | 5.0 | 0.00 | 0.00 | 0.00 | 63 | 1017.7 |
| 20260508203535 | 54 | 277 | 1.0 | 5.0 | 0.00 | 0.00 | 0.00 | 62 | 1017.6 |
| 20260508203052 | 54 | 0 | 0.0 | 4.0 | 0.00 | 0.00 | 0.00 | 63 | 1017.6 |
| 20260508202535 | 54 | 0 | 1.0 | 4.0 | 0.00 | 0.00 | 0.00 | 63 | 1017.6 |
| 20260508202038 | 54 | 352 | 0.0 | 3.0 | 0.00 | 0.00 | 0.00 | 64 | 1017.6 |
| 20260508201545 | 54 | 0 | 0.0 | 3.0 | 0.00 | 0.00 | 0.00 | 61 | 1017.7 |
| 20260508201035 | 54 | 0 | 1.0 | 3.0 | 0.00 | 0.00 | 0.00 | 60 | 1017.7 |
| 20260508200535 | 54 | 328 | 0.0 | 3.0 | 0.00 | 0.00 | 0.00 | 64 | 1017.7 |
| 20260508200047 | 54 | 184 | 0.0 | 4.0 | 0.00 | 0.00 | 0.00 | 63 | 1017.6 |
| 20260508195535 | 54 | 0 | 1.0 | 4.0 | 0.00 | 0.00 | 0.00 | 62 | 1017.7 |
| 20260508195035 | 54 | 342 | 2.0 | 4.0 | 0.00 | 0.00 | 0.00 | 61 | 1017.7 |
| 20260508194611 | 55 | 352 | 0.0 | 6.0 | 0.00 | 0.00 | 0.00 | 59 | 1017.9 |
| 20260508194034 | 55 | 324 | 1.0 | 6.0 | 0.00 | 0.00 | 0.00 | 57 | 1018.1 |
| 20260508193535 | 56 | 0 | 0.0 | 3.0 | 0.00 | 0.00 | 0.00 | 63 | 1018.0 |
| 20260508193041 | 55 | 339 | 0.0 | 2.0 | 0.00 | 0.00 | 0.00 | 62 | 1018.1 |
| 20260508192537 | 56 | 248 | 0.0 | 3.0 | 0.00 | 0.00 | 0.00 | 60 | 1018.4 |
| 20260508192036 | 56 | 219 | 0.0 | 5.0 | 0.00 | 0.00 | 0.00 | 58 | 1018.4 |
| 20260508191546 | 57 | 349 | 1.0 | 7.0 | 0.00 | 0.00 | 0.00 | 58 | 1018.4 |
| 20260508191037 | 57 | 42 | 1.0 | 8.0 | 0.00 | 0.00 | 0.00 | 57 | 1018.4 |
| 20260508190536 | 57 | 184 | 1.0 | 8.0 | 0.00 | 0.00 | 0.00 | 55 | 1018.4 |
| 20260508190047 | 56 | 0 | 0.0 | 7.0 | 0.00 | 0.00 | 0.00 | 60 | 1018.3 |
| 20260508185539 | 56 | 263 | 1.0 | 7.0 | 0.00 | 0.00 | 0.00 | 54 | 1018.3 |
| 20260508185035 | 56 | 350 | 1.0 | 6.0 | 0.00 | 0.00 | 0.00 | 51 | 1018.4 |
| 20260508184547 | 56 | 0 | 0.0 | 6.0 | 0.00 | 0.00 | 0.00 | 53 | 1018.4 |
| 20260508184036 | 56 | 219 | 1.0 | 5.0 | 0.00 | 0.00 | 0.00 | 55 | 1018.7 |
| 20260508183535 | 56 | 126 | 1.0 | 6.0 | 0.00 | 0.00 | 0.00 | 54 | 1018.7 |
| 20260508183045 | 56 | 0 | 1.0 | 6.0 | 0.00 | 0.00 | 0.00 | 55 | 1018.7 |
| 20260508182535 | 55 | 0 | 1.0 | 3.0 | 0.00 | 0.00 | 0.00 | 52 | 1018.6 |
| 20260508182035 | 55 | 130 | 0.0 | 2.0 | 0.00 | 0.00 | 0.00 | 59 | 1018.6 |
| 20260508181615 | 55 | 269 | 0.0 | 3.0 | 0.00 | 0.00 | 0.00 | 59 | 1018.5 |
| 20260508181036 | 55 | 0 | 1.0 | 3.0 | 0.00 | 0.00 | 0.00 | 56 | 1018.8 |
| 20260508180535 | 55 | 285 | 1.0 | 3.0 | 0.00 | 0.00 | 0.00 | 57 | 1018.6 |
| 20260508180056 | 54 | 279 | 0.0 | 6.0 | 0.00 | 0.00 | 0.00 | 61 | 1018.7 |
| 20260508175536 | 54 | 320 | 1.0 | 6.0 | 0.00 | 0.00 | 0.00 | 57 | 1018.8 |
| 20260508175036 | 53 | 194 | 0.0 | 5.0 | 0.00 | 0.00 | 0.00 | 57 | 1018.8 |
| 20260508174547 | 53 | 252 | 1.0 | 5.0 | 0.00 | 0.00 | 0.00 | 55 | 1018.8 |
| 20260508174035 | 53 | 0 | 0.0 | 4.0 | 0.00 | 0.00 | 0.00 | 58 | 1018.7 |
| 20260508173537 | 53 | 346 | 1.0 | 4.0 | 0.00 | 0.00 | 0.00 | 51 | 1019.0 |
| 20260508173047 | 53 | 291 | 1.0 | 4.0 | 0.00 | 0.00 | 0.00 | 54 | 1018.9 |
| 20260508172535 | 53 | 311 | 1.0 | 4.0 | 0.00 | 0.00 | 0.00 | 53 | 1019.1 |
| 20260508172035 | 53 | 284 | 1.0 | 5.0 | 0.00 | 0.00 | 0.00 | 56 | 1019.0 |
| 20260508171543 | 53 | 0 | 1.0 | 6.0 | 0.00 | 0.00 | 0.00 | 53 | 1019.2 |
| 20260508171040 | 52 | 0 | 0.0 | 6.0 | 0.00 | 0.00 | 0.00 | 59 | 1019.1 |
| 20260508170537 | 52 | 293 | 1.0 | 5.0 | 0.00 | 0.00 | 0.00 | 54 | 1019.2 |
| 20260508170049 | 51 | 146 | 1.0 | 4.0 | 0.00 | 0.00 | 0.00 | 51 | 1019.1 |
| 20260508165534 | 52 | 273 | 1.0 | 3.0 | 0.00 | 0.00 | 0.00 | 50 | 1019.2 |
| 20260508165035 | 53 | 310 | 0.0 | 4.0 | 0.00 | 0.00 | 0.00 | 56 | 1019.3 |
| 20260508164550 | 53 | 0 | 0.0 | 5.0 | 0.00 | 0.00 | 0.00 | 60 | 1019.3 |
| 20260508164036 | 52 | 76 | 1.0 | 5.0 | 0.00 | 0.00 | 0.00 | 60 | 1019.5 |
| 20260508163535 | 52 | 213 | 0.0 | 3.0 | 0.00 | 0.00 | 0.00 | 66 | 1019.5 |
| 20260508163049 | 51 | 301 | 0.0 | 3.0 | 0.00 | 0.00 | 0.00 | 61 | 1019.5 |
| 20260508162537 | 51 | 336 | 0.0 | 3.0 | 0.00 | 0.00 | 0.00 | 58 | 1019.6 |
| 20260508162035 | 50 | 0 | 1.0 | 3.0 | 0.00 | 0.00 | 0.00 | 56 | 1019.6 |
| 20260508161603 | 50 | 198 | 1.0 | 3.0 | 0.00 | 0.00 | 0.00 | 59 | 1019.7 |
| 20260508161037 | 49 | 333 | 1.0 | 3.0 | 0.00 | 0.00 | 0.00 | 60 | 1019.6 |
| 20260508160537 | 48 | 0 | 1.0 | 4.0 | 0.00 | 0.00 | 0.00 | 55 | 1019.6 |
| 20260508160048 | 47 | 0 | 1.0 | 4.0 | 0.00 | 0.00 | 0.00 | 60 | 1019.6 |
| 20260508155535 | 48 | 296 | 1.0 | 3.0 | 0.00 | 0.00 | 0.00 | 62 | 1019.6 |
| 20260508155035 | 47 | 209 | 1.0 | 3.0 | 0.00 | 0.00 | 0.00 | 66 | 1019.6 |
| 20260508154552 | 47 | 248 | 0.0 | 7.0 | 0.00 | 0.00 | 0.00 | 68 | 1019.6 |
| 20260508154035 | 46 | 274 | 0.0 | 7.0 | 0.00 | 0.00 | 0.00 | 67 | 1019.7 |
| 20260508153536 | 46 | 143 | 2.0 | 6.0 | 0.00 | 0.00 | 0.00 | 66 | 1019.6 |
| 20260508153052 | 45 | 263 | 1.0 | 3.0 | 0.00 | 0.00 | 0.00 | 72 | 1019.7 |
| 20260508152535 | 44 | 290 | 0.0 | 3.0 | 0.00 | 0.00 | 0.00 | 72 | 1019.8 |
| 20260508152035 | 44 | 265 | 1.0 | 3.0 | 0.00 | 0.00 | 0.00 | 72 | 1019.7 |
| 20260508151548 | 44 | 154 | 0.0 | 3.0 | 0.00 | 0.00 | 0.00 | 72 | 1019.6 |
| 20260508151036 | 43 | 282 | 1.0 | 2.0 | 0.00 | 0.00 | 0.00 | 73 | 1019.7 |
| 20260508150536 | 42 | 0 | 1.0 | 2.0 | 0.00 | 0.00 | 0.00 | 75 | 1019.7 |
| 20260508150046 | 42 | 0 | 0.0 | 2.0 | 0.00 | 0.00 | 0.00 | 76 | 1019.7 |
| 20260508145535 | 41 | 292 | 0.0 | 2.0 | 0.00 | 0.00 | 0.00 | 76 | 1019.6 |
| 20260508145036 | 41 | 300 | 0.0 | 2.0 | 0.00 | 0.00 | 0.00 | 76 | 1019.6 |
| 20260508144549 | 41 | 0 | 0.0 | 2.0 | 0.00 | 0.00 | 0.00 | 77 | 1019.5 |
| 20260508144035 | 40 | 300 | 0.0 | 2.0 | 0.00 | 0.00 | 0.00 | 76 | 1019.5 |
| 20260508143535 | 40 | 0 | 0.0 | 2.0 | 0.00 | 0.00 | 0.00 | 75 | 1019.5 |
| 20260508143050 | 40 | 251 | 0.0 | 3.0 | 0.00 | 0.00 | 0.00 | 78 | 1019.5 |
| 20260508142535 | 39 | 0 | 0.0 | 3.0 | 0.00 | 0.00 | 0.00 | 77 | 1019.5 |
| 20260508142036 | 39 | 302 | 0.0 | 2.0 | 0.00 | 0.00 | 0.00 | 79 | 1019.6 |
| 20260508141549 | 39 | 0 | 0.0 | 2.0 | 0.00 | 0.00 | 0.00 | 80 | 1019.5 |
| 20260508141035 | 38 | 298 | 0.0 | 2.0 | 0.00 | 0.00 | 0.00 | 81 | 1019.6 |
| 20260508140535 | 38 | 0 | 0.0 | 2.0 | 0.00 | 0.00 | 0.00 | 81 | 1019.6 |
| 20260508140054 | 38 | 0 | 0.0 | 2.0 | 0.00 | 0.00 | 0.00 | 81 | 1019.6 |
| 20260508135739 | 37 | 0 | 0.0 | 1.0 | 0.00 | 0.00 | 0.00 | 82 | 1019.5 |
| 20260508133538 | 37 | 279 | 0.0 | 1.0 | 0.00 | 0.00 | 0.00 | 80 | 1019.4 |
| 20260508133103 | 37 | 279 | 0.0 | 1.0 | 0.00 | 0.00 | 0.00 | 79 | 1019.4 |
| 20260508132535 | 37 | 0 | 0.0 | 1.0 | 0.00 | 0.00 | 0.00 | 78 | 1019.5 |
| 20260508132036 | 37 | 0 | 0.0 | 0.0 | 0.00 | 0.00 | 0.00 | 77 | 1019.4 |
| 20260508131549 | 37 | 0 | 0.0 | 1.0 | 0.00 | 0.00 | 0.00 | 76 | 1019.4 |
| 20260508131035 | 37 | 0 | 0.0 | 1.0 | 0.00 | 0.00 | 0.00 | 74 | 1019.3 |
| 20260508130535 | 37 | 0 | 0.0 | 1.0 | 0.00 | 0.00 | 0.00 | 72 | 1019.1 |
| 20260508130047 | 37 | 0 | 0.0 | 1.0 | 0.00 | 0.00 | 0.00 | 71 | 1019.2 |
| 20260508125536 | 37 | 0 | 0.0 | 1.0 | 0.00 | 0.00 | 0.00 | 67 | 1019.1 |
| 20260508125035 | 37 | 0 | 0.0 | 1.0 | 0.00 | 0.00 | 0.00 | 72 | 1019.0 |
| 20260508124548 | 37 | 0 | 0.0 | 1.0 | 0.00 | 0.00 | 0.00 | 69 | 1018.9 |
| 20260508124035 | 37 | 0 | 0.0 | 1.0 | 0.00 | 0.00 | 0.00 | 68 | 1019.0 |
| 20260508123535 | 37 | 0 | 0.0 | 1.0 | 0.00 | 0.00 | 0.00 | 69 | 1018.9 |
| 20260508123056 | 37 | 0 | 0.0 | 1.0 | 0.00 | 0.00 | 0.00 | 68 | 1018.8 |
| 20260508122536 | 37 | 0 | 0.0 | 1.0 | 0.00 | 0.00 | 0.00 | 66 | 1018.8 |
| 20260508122035 | 37 | 0 | 0.0 | 2.0 | 0.00 | 0.00 | 0.00 | 66 | 1018.7 |
| 20260508121552 | 37 | 0 | 0.0 | 2.0 | 0.00 | 0.00 | 0.00 | 64 | 1018.6 |
| 20260508121034 | 37 | 0 | 0.0 | 2.0 | 0.00 | 0.00 | 0.00 | 65 | 1018.6 |
| 20260508120536 | 37 | 294 | 0.0 | 2.0 | 0.00 | 0.00 | 0.00 | 62 | 1018.4 |
| 20260508120047 | 37 | 0 | 1.0 | 3.0 | 0.00 | 0.00 | 0.00 | 59 | 1018.4 |
| 20260508115535 | 37 | 288 | 1.0 | 3.0 | 0.00 | 0.04 | 0.00 | 60 | 1018.2 |
| 20260508115110 | 37 | 288 | 0.0 | 2.0 | 0.00 | 0.04 | 0.00 | 64 | 1018.2 |